Regional Weather Roundup
Issued by NWS

Home | Current Version | Previous Version | Graphics & Text | Print | Product List | Glossary On
Versions: 1 2 3 4 5 6 7 8 9 10 11 12 13 14 15 16 17 18 19 20 21 22 23 24 25 26 27 28 29 30 31 32 33 34 35 36 37 38 39 40 41 42 43 44 45 46 47 48 49 50
000
ASUS43 KFSD 231702
RWRSD

WEATHER ROUNDUP FOR SOUTH DAKOTA
NATIONAL WEATHER SERVICE SIOUX FALLS SD
1200 PM CDT SAT AUG 23 2014

NOTE: "FAIR" INDICATES FEW OR NO CLOUDS BELOW 12,000 FEET WITH NO
SIGNIFICANT WEATHER AND/OR OBSTRUCTIONS TO VISIBILITY.


SDZ001>005-009-010-012>017-231800-
NORTHWEST AND NORTH CENTRAL SOUTH DAKOTA

CITY           SKY/WX    TMP DP  RH WIND       PRES   REMARKS
BUFFALO          N/A     60  59  96 E22G30    29.82F
FAITH            N/A     63  62  97 NE15      29.85F
MOBRIDGE       LGT RAIN  65  65 100 E20G28    29.84F
$$

SDZ012>016-024>037-041>051-057-063-072>074-231800-
SOUTHWEST AND SOUTH CENTRAL SOUTH DAKOTA

CITY           SKY/WX    TMP DP  RH WIND       PRES   REMARKS
RAPID CTY ARPT PTSUNNY   68  62  81 NE9       29.85F
PIERRE         CLOUDY    71  69  93 SE15      29.79F
ELLSWORTH AFB  CLOUDY    67  62  83 NE6       29.86F
PHILIP         CLOUDY    70  66  87 W10       29.78R
PINE RIDGE     CLOUDY    67  62  84 CALM      29.86F
WINNER         CLOUDY    75  67  76 SE18      29.83F
$$

SDZ004>011-016>023-039-040-231800-
NORTHEAST SOUTH DAKOTA

CITY           SKY/WX    TMP DP  RH WIND       PRES   REMARKS
ABERDEEN       CLOUDY    67  67 100 E10       29.89F
WATERTOWN      CLOUDY    71  68  90 E15G21    29.91F
SISSETON         N/A     70  68  93 E6        29.94F
$$

SDZ017-020-022-023-036>040-048>070-231800-
SOUTHEAST SOUTH DAKOTA

CITY           SKY/WX    TMP DP  RH WIND       PRES   REMARKS
SIOUX FALLS    CLOUDY    76  70  82 SE13      29.89F
HURON          CLOUDY    73  67  81 SE8       29.86F
CHAMBERLAIN    RAIN      70  67  89 SE12      29.83F
MITCHELL       PTSUNNY   75  70  84 SE16      29.86F
YANKTON        PTSUNNY   75  70  83 E9        29.86F
$$

ABBREVIATIONS USED IN REMARKS
   TC - TEMPERATURE IN CELSIUS
  WCI - WIND CHILL INDEX
   HX - HEAT INDEX
  VSB - VISIBILITY




USA.gov is the U.S. government's official web portal to all federal, state and local government web resources and services.